Serenade Of The Seas — C6FV8 — position and weather

sailwx.info

Track history (hours):
 
Tides and Currents Weather Stations Pressure Air Temp Water Temp Dewpoint Dewpoint Depression Visibility Wind Speed Wind Dir Waves Ship Positions

Serenade Of The Seas

Operator: Royal Caribbean Cruises Ltd

Last reported at 2017-Mar-24 10:20 UTC. Time now 2017-Mar-24 19:59 UTC.
Position N 18°00' W 063°03'.

Length 294 m; draft 8.5 m.

Type: Ship. MMSI: 311492000.

Date/timePositionNaut miles runAvg speedWind from/ knotsBaromVisibWave heightAir tempDewpointWater temp
2017-Mar-24 10:20N 18°00' W 063°03'56 6.7
2017-Mar-24 02:04N 17°25' W 062°18'4 7.9
2017-Mar-24 01:34N 17°22' W 062°14'8 7.8
2017-Mar-24 00:33N 17°18' W 062°08'7 6.8
2017-Mar-23 23:34N 17°14' W 062°02'7 7.4
2017-Mar-23 22:34N 17°10' W 061°56'5 5.0
2017-Mar-23 21:32N 17°07' W 061°51'0 0.0
2017-Mar-23 20:32N 17°07' W 061°51'0 0.0
2017-Mar-23 19:32N 17°07' W 061°51'0 0.0
2017-Mar-23 18:32N 17°07' W 061°51'0 0.0
2017-Mar-23 17:32N 17°07' W 061°51'0 0.0
2017-Mar-23 16:32N 17°07' W 061°51'0 0.0
2017-Mar-23 15:32N 17°07' W 061°51'0 0.0
2017-Mar-23 14:32N 17°07' W 061°51'0 0.0
2017-Mar-23 13:32N 17°07' W 061°51'0 0.0
2017-Mar-23 12:32N 17°07' W 061°51'0 0.0
2017-Mar-23 11:29N 17°07' W 061°51'3 2.8
2017-Mar-23 10:34N 17°08' W 061°53'9 8.6
2017-Mar-23 09:34N 17°09' W 062°02'1010.3
2017-Mar-23 08:34N 16°59' W 062°03'1010.0
2017-Mar-23 07:34N 16°49' W 062°03'10 9.7
2017-Mar-23 06:34N 16°39' W 062°03'10 9.6
2017-Mar-23 05:33N 16°29' W 062°03'10 9.7
2017-Mar-23 04:34N 16°20' W 062°04'10 9.6
2017-Mar-23 03:33N 16°10' W 062°03'4310.0
2017-Mar-22 23:17N 15°32' W 061°43'4 0.2
2017-Mar-22 08:32N 15°36' W 061°43'4010.1
2017-Mar-22 04:32N 16°10' W 062°05'1010.4
2017-Mar-22 03:33N 16°18' W 062°11'1010.2
2017-Mar-22 02:34N 16°27' W 062°16'1010.3
2017-Mar-22 01:34N 16°36' W 062°22'1110.5
2017-Mar-22 00:33N 16°44' W 062°28'40 2.8
2017-Mar-21 10:23N 17°18' W 062°51'112 9.3
2017-Mar-20 22:24N 18°19' W 064°29'8 9.0
2017-Mar-20 21:33N 18°24' W 064°35'1 0.1
2017-Mar-20 11:22N 18°25' W 064°36'7 8.9
2017-Mar-20 10:33N 18°27' W 064°29'1515.2
2017-Mar-20 09:33N 18°37' W 064°41'1716.8
2017-Mar-20 08:33N 18°46' W 064°56'  
2017-Mar-17 22:25N 26°12' W 079°36'1416.7
2017-Mar-17 21:33N 26°08' W 079°52'1313.3
2017-Mar-17 20:33N 26°06' W 080°06'1 0.9
2017-Mar-17 19:32N 26°05' W 080°07'0 0.0
2017-Mar-17 18:32N 26°05' W 080°07'0 0.0
2017-Mar-17 17:32N 26°05' W 080°07'0 0.0
2017-Mar-17 16:32N 26°05' W 080°07'0 0.0
2017-Mar-17 15:32N 26°05' W 080°07'0 0.0
2017-Mar-17 14:32N 26°05' W 080°07'0 0.0
2017-Mar-17 13:32N 26°05' W 080°07'0 0.0
2017-Mar-17 12:32N 26°05' W 080°07'0 0.0
2017-Mar-17 11:32N 26°05' W 080°07'0 0.2
2017-Mar-17 10:33N 26°05' W 080°07'8 8.0
2017-Mar-17 09:33N 26°05' W 079°58'1818.2
2017-Mar-17 08:33N 25°47' W 079°53'1919.2
2017-Mar-17 07:33N 25°28' W 079°48'  
Track history (hours):
 
Tides and Currents Weather Stations Pressure Air Temp Water Temp Dewpoint Dewpoint Depression Visibility Wind Speed Wind Dir Waves Ship Positions

Serenade Of The Seas

Operator: Royal Caribbean Cruises Ltd

Last reported at 2017-Mar-24 10:20 UTC. Time now 2017-Mar-24 19:59 UTC.
Position N 18°00' W 063°03'.

Length 294 m; draft 8.5 m.

Type: Ship. MMSI: 311492000.

Date/timePositionNaut miles runAvg speedWind from/ knotsBaromVisibWave heightAir tempDewpointWater temp
2017-Mar-24 10:20N 18°00' W 063°03'56 6.7
2017-Mar-24 02:04N 17°25' W 062°18'4 7.9
2017-Mar-24 01:34N 17°22' W 062°14'8 7.8
2017-Mar-24 00:33N 17°18' W 062°08'7 6.8
2017-Mar-23 23:34N 17°14' W 062°02'7 7.4
2017-Mar-23 22:34N 17°10' W 061°56'5 5.0
2017-Mar-23 21:32N 17°07' W 061°51'0 0.0
2017-Mar-23 20:32N 17°07' W 061°51'0 0.0
2017-Mar-23 19:32N 17°07' W 061°51'0 0.0
2017-Mar-23 18:32N 17°07' W 061°51'0 0.0
2017-Mar-23 17:32N 17°07' W 061°51'0 0.0
2017-Mar-23 16:32N 17°07' W 061°51'0 0.0
2017-Mar-23 15:32N 17°07' W 061°51'0 0.0
2017-Mar-23 14:32N 17°07' W 061°51'0 0.0
2017-Mar-23 13:32N 17°07' W 061°51'0 0.0
2017-Mar-23 12:32N 17°07' W 061°51'0 0.0
2017-Mar-23 11:29N 17°07' W 061°51'3 2.8
2017-Mar-23 10:34N 17°08' W 061°53'9 8.6
2017-Mar-23 09:34N 17°09' W 062°02'1010.3
2017-Mar-23 08:34N 16°59' W 062°03'1010.0
2017-Mar-23 07:34N 16°49' W 062°03'10 9.7
2017-Mar-23 06:34N 16°39' W 062°03'10 9.6
2017-Mar-23 05:33N 16°29' W 062°03'10 9.7
2017-Mar-23 04:34N 16°20' W 062°04'10 9.6
2017-Mar-23 03:33N 16°10' W 062°03'4310.0
2017-Mar-22 23:17N 15°32' W 061°43'4 0.2
2017-Mar-22 08:32N 15°36' W 061°43'4010.1
2017-Mar-22 04:32N 16°10' W 062°05'1010.4
2017-Mar-22 03:33N 16°18' W 062°11'1010.2
2017-Mar-22 02:34N 16°27' W 062°16'1010.3
2017-Mar-22 01:34N 16°36' W 062°22'1110.5
2017-Mar-22 00:33N 16°44' W 062°28'40 2.8
2017-Mar-21 10:23N 17°18' W 062°51'112 9.3
2017-Mar-20 22:24N 18°19' W 064°29'8 9.0
2017-Mar-20 21:33N 18°24' W 064°35'1 0.1
2017-Mar-20 11:22N 18°25' W 064°36'7 8.9
2017-Mar-20 10:33N 18°27' W 064°29'1515.2
2017-Mar-20 09:33N 18°37' W 064°41'1716.8
2017-Mar-20 08:33N 18°46' W 064°56'  
2017-Mar-17 22:25N 26°12' W 079°36'1416.7
2017-Mar-17 21:33N 26°08' W 079°52'1313.3
2017-Mar-17 20:33N 26°06' W 080°06'1 0.9
2017-Mar-17 19:32N 26°05' W 080°07'0 0.0
2017-Mar-17 18:32N 26°05' W 080°07'0 0.0
2017-Mar-17 17:32N 26°05' W 080°07'0 0.0
2017-Mar-17 16:32N 26°05' W 080°07'0 0.0
2017-Mar-17 15:32N 26°05' W 080°07'0 0.0
2017-Mar-17 14:32N 26°05' W 080°07'0 0.0
2017-Mar-17 13:32N 26°05' W 080°07'0 0.0
2017-Mar-17 12:32N 26°05' W 080°07'0 0.0
2017-Mar-17 11:32N 26°05' W 080°07'0 0.2
2017-Mar-17 10:33N 26°05' W 080°07'8 8.0
2017-Mar-17 09:33N 26°05' W 079°58'1818.2
2017-Mar-17 08:33N 25°47' W 079°53'1919.2
2017-Mar-17 07:33N 25°28' W 079°48'  

Dump ship's entire track history